Regional Weather Roundup
Issued by NWS

Home | Current Version | Previous Version | Graphics & Text | Print | Product List | Glossary On
Versions: 1 2 3 4 5 6 7 8 9 10 11 12 13 14 15 16 17 18 19 20 21 22 23 24 25 26 27 28 29 30 31 32 33 34 35 36 37 38 39 40 41 42 43 44 45 46 47 48 49 50
000
ASUS43 KIND 181159
RWRIN

WEATHER ROUNDUP FOR INDIANA
NATIONAL WEATHER SERVICE INDIANAPOLIS IN
800 AM EDT FRI APR 18 2014

NOTE: "FAIR" INDICATES FEW OR NO CLOUDS BELOW 12,000 FEET WITH NO
SIGNIFICANT WEATHER AND/OR OBSTRUCTIONS TO VISIBILITY.

* - STATION DOES NOT REPORT WEATHER SUCH AS PRECIPITATION OR FOG.

+ - STATION NOT QUALITY CONTROLLED BY THE NATIONAL WEATHER SERVICE.
    USE DATA WITH CAUTION...ESPECIALLY DEWPOINT AND RELATIVE
    HUMIDITY OBSERVATIONS.

INZ001>003-010>013-019-020-181300-
NORTHWEST INDIANA

CITY           SKY/WX    TMP DP  RH WIND       PRES   REMARKS
GARY /AIRPORT/ PTCLDY    41  37  87 N6        30.30R HAZE
VALPARAISO     MOCLDY    45  40  82 N6        30.29R
6HR MIN TEMP:  42; 6HR MAX TEMP:  51; 6HR PCP: TRACE;


$$

LMZ046-743>745-181300-
SOUTHERN LAKE MICHIGAN

STATION/POSITION TIME  TEMP WIND        PRES
                       AIR  DIR/SP/G
                 (UTC) (F)  (DEG/KT/KT) (MB)
MICHIGAN CITY    1100   40   30/  6/  8   N/A

$$

INZ004-005-014>016-021>024-181300-
NORTH CENTRAL INDIANA

CITY           SKY/WX    TMP DP  RH WIND       PRES   REMARKS
ELKHART        CLOUDY    46  43  87 CALM      30.28R FOG
GOSHEN         LGT RAIN  48  44  86 SW3       30.27R
6HR MIN TEMP:  47; 6HR MAX TEMP:  50; 6HR PCP: TRACE;

SOUTH BEND     CLOUDY    47  42  83 NW5       30.29R HAZE
6HR MIN TEMP:  46; 6HR MAX TEMP:  50; 6HR PCP:  0.01;


$$

INZ006>009-017-018-025>027-181300-
NORTHEAST INDIANA

CITY           SKY/WX    TMP DP  RH WIND       PRES   REMARKS
ANGOLA *+      PTSUNNY   46  43  87 CALM      30.27R
FORT WAYNE     CLOUDY    45  40  82 CALM      30.29R
6HR MIN TEMP:  41; 6HR MAX TEMP:  49;


$$

INZ028-029-035-036-043>045-051>053-181300-
WEST CENTRAL INDIANA

CITY           SKY/WX    TMP DP  RH WIND       PRES   REMARKS
GREENCASTLE +  MOCLDY    43  39  87 CALM      30.28S
LAFAYETTE      MOCLDY    45  41  86 CALM      30.28R
6HR MIN TEMP:  43; 6HR MAX TEMP:  51;

TERRE HAUTE    MOCLDY    46  42  86 CALM      30.27S
6HR MIN TEMP:  42; 6HR MAX TEMP:  50;


$$

INZ030>032-037>040-046>048-054>057-064-065-181300-
CENTRAL INDIANA

CITY           SKY/WX    TMP DP  RH WIND       PRES   REMARKS
INDIANAPOLIS   MOCLDY    44  39  82 SE5       30.28R
6HR MIN TEMP:  41; 6HR MAX TEMP:  49;

-EAGLE CREEK   PTCLDY    46  41  82 CALM      30.27R
6HR MIN TEMP:  42; 6HR MAX TEMP:  47;

KOKOMO *+      CLOUDY    45  39  81 S5        30.28R
MT COMFORT *+  MOSUNNY   41  41 100 CALM      30.29R
SHELBYVILLE    SUNNY     41  36  82 E3        30.28R
6HR MIN TEMP:  40; 6HR MAX TEMP:  47;


$$

INZ033-034-041-042-049-050-058-059-181300-
EAST CENTRAL INDIANA

CITY           SKY/WX    TMP DP  RH WIND       PRES   REMARKS
MUNCIE         PTSUNNY   44  38  79 CALM      30.29R
6HR MIN TEMP:  39; 6HR MAX TEMP:  49;


$$

INZ060-061-067>069-081>083-085>088-181300-
SOUTHWEST INDIANA

CITY           SKY/WX    TMP DP  RH WIND       PRES   REMARKS
EVANSVILLE     CLEAR     45  40  82 CALM      30.27S
6HR MIN TEMP:  43; 6HR MAX TEMP:  50;

HUNTINGBURG *+ CLEAR     43  37  81 CALM      30.29R
6HR MIN TEMP:  41; 6HR MAX TEMP:  48;


$$

INZ062-063-066-070>080-084-089>092-181300-
SOUTH CENTRAL AND SOUTHEAST INDIANA

CITY           SKY/WX    TMP DP  RH WIND       PRES   REMARKS
BLOOMINGTON    PTCLDY    41  37  86 CALM      30.27S
6HR MIN TEMP:  37; 6HR MAX TEMP:  43;


$$




USA.gov is the U.S. government's official web portal to all federal, state and local government web resources and services.